SCP
0 0 0 1 1 1 1 2 4 6 6 5 5 6 4 4 2 2 3 3 3 2
0 0 0 2 3 2 4 2 3 5 4 4 5 5 4 2 2 3 3 3 3 2
0 0 0 0 1 2 3 2 3 2 3 4 3 3 4 3 3 3 3 3 2 2
0 0 0 0 1 1 2 1 1 2 2 2 3 3 4 3 3 3 3 3 2 2
0 0 0 1 1 0 1 0 1 1 1 2 2 2 2 3 4 3 3 2 1 1
0 0 0 1 1 0 0 0 1 2 2 1 1 2 3 4 3 3 2 1 1 1
0 0 0 1 2 0 0 1 1 1 1 1 2 2 3 3 3 2 2 1 1 1
0 0 0 0 1 0 0 1 1 2 2 2 2 2 3 3 3 2 2 1 1 1
0 0 0 0 1 0 0 1 2 2 2 3 2 2 3 3 2 1 1 1 1 1
-0 -0 -0 0 1 0 1 2 3 3 3 2 3 1 1 2 2 1 1 1 1 0
-0 0 0 1 1 1 2 3 5 4 3 3 2 0 0 1 1 1 0 0 0 0
0 -0 0 1 1 2 2 4 6 4 4 3 0 0 0 0 1 0 0 0 0 0
0 0 1 1 1 2 3 6 5 4 3 1 0 0 0 0 0 0 0 0 0 0
0 0 1 2 3 4 4 4 3 3 2 1 0 0 0 0 0 0 0 0 0 0
Wind_Speed_500mb
53 54 53 56 56 54 54 59 76 75 62 53 62 61 57 52 44 45 48 43 40 34
55 59 62 63 65 60 63 71 75 78 62 61 61 61 52 48 43 46 40 40 41 37
53 57 61 65 71 69 63 64 61 64 60 55 60 58 54 44 43 41 39 36 38 36
53 56 58 64 71 73 70 69 66 59 57 58 61 62 52 45 39 40 39 37 36 39
48 53 53 55 67 71 64 59 56 54 52 53 57 56 49 47 39 39 40 39 39 37
50 52 57 52 60 61 56 54 51 51 54 54 53 49 45 42 39 40 40 36 41 39
54 56 57 55 57 57 55 51 54 56 54 52 49 44 43 41 40 40 39 42 43 37
55 58 60 60 58 55 52 54 56 54 51 48 46 46 47 43 41 41 42 42 36 30
57 58 59 61 55 53 55 57 56 54 51 51 47 53 55 45 41 44 45 36 29 28
55 56 60 54 52 56 62 63 60 54 53 52 49 55 45 43 46 45 37 31 29 29
52 57 60 50 54 59 61 65 65 59 55 56 52 50 50 48 43 34 32 31 31 31
50 59 44 51 60 64 69 69 65 63 63 57 54 59 56 51 35 32 31 29 27 26
47 53 35 53 63 71 71 74 66 62 54 55 65 63 54 46 33 32 28 25 29 33
46 43 40 57 67 72 78 76 65 63 62 67 66 60 53 48 34 29 28 24 22 24
Wind_Direction_500mb
275 270 263 262 260 258 247 245 259 260 261 252 241 233 235 237 240 253 262 239 224 226
273 270 266 259 258 262 261 253 255 256 254 244 235 233 229 231 243 260 247 228 228 230
278 270 267 263 256 255 260 257 243 245 237 234 231 225 225 226 242 244 232 217 226 223
285 278 271 263 259 255 259 257 248 233 234 228 221 217 220 223 230 220 218 218 216 222
288 279 274 266 256 251 251 249 235 223 214 207 207 211 217 225 205 206 211 217 216 212
283 284 275 267 258 250 244 238 224 209 201 198 199 207 208 210 203 206 209 210 207 207
280 282 280 267 260 248 236 225 213 203 197 196 196 198 197 196 199 202 208 214 213 207
279 279 279 271 256 244 229 216 207 201 195 193 193 195 192 194 195 198 205 207 204 203
278 278 275 266 252 234 220 208 200 198 192 188 189 198 191 189 193 195 204 197 198 211
276 279 271 252 241 223 211 199 193 190 185 183 186 200 196 200 194 197 193 194 200 205
276 273 266 240 226 212 203 193 186 180 178 180 194 188 187 188 189 184 190 196 202 209
274 269 262 239 211 204 194 183 178 176 175 179 184 181 180 174 179 184 191 202 210 217
270 262 251 225 204 194 183 175 171 166 175 183 179 174 176 173 179 189 190 195 213 213
263 244 242 202 187 174 174 171 167 166 171 172 175 173 178 179 186 194 191 195 201 204
Wind_Speed_850mb
53 54 53 56 56 54 54 59 76 75 62 53 62 61 57 52 44 45 48 43 40 34
55 59 62 63 65 60 63 71 75 78 62 61 61 61 52 48 43 46 40 40 41 37
53 57 61 65 71 69 63 64 61 64 60 55 60 58 54 44 43 41 39 36 38 36
53 56 58 64 71 73 70 69 66 59 57 58 61 62 52 45 39 40 39 37 36 39
48 53 53 55 67 71 64 59 56 54 52 53 57 56 49 47 39 39 40 39 39 37
50 52 57 52 60 61 56 54 51 51 54 54 53 49 45 42 39 40 40 36 41 39
54 56 57 55 57 57 55 51 54 56 54 52 49 44 43 41 40 40 39 42 43 37
55 58 60 60 58 55 52 54 56 54 51 48 46 46 47 43 41 41 42 42 36 30
57 58 59 61 55 53 55 57 56 54 51 51 47 53 55 45 41 44 45 36 29 28
55 56 60 54 52 56 62 63 60 54 53 52 49 55 45 43 46 45 37 31 29 29
52 57 60 50 54 59 61 65 65 59 55 56 52 50 50 48 43 34 32 31 31 31
50 59 44 51 60 64 69 69 65 63 63 57 54 59 56 51 35 32 31 29 27 26
47 53 35 53 63 71 71 74 66 62 54 55 65 63 54 46 33 32 28 25 29 33
46 43 40 57 67 72 78 76 65 63 62 67 66 60 53 48 34 29 28 24 22 24
Wind_Direction_850mb
275 270 263 262 260 258 247 245 259 260 261 252 241 233 235 237 240 253 262 239 224 226
273 270 266 259 258 262 261 253 255 256 254 244 235 233 229 231 243 260 247 228 228 230
278 270 267 263 256 255 260 257 243 245 237 234 231 225 225 226 242 244 232 217 226 223
285 278 271 263 259 255 259 257 248 233 234 228 221 217 220 223 230 220 218 218 216 222
288 279 274 266 256 251 251 249 235 223 214 207 207 211 217 225 205 206 211 217 216 212
283 284 275 267 258 250 244 238 224 209 201 198 199 207 208 210 203 206 209 210 207 207
280 282 280 267 260 248 236 225 213 203 197 196 196 198 197 196 199 202 208 214 213 207
279 279 279 271 256 244 229 216 207 201 195 193 193 195 192 194 195 198 205 207 204 203
278 278 275 266 252 234 220 208 200 198 192 188 189 198 191 189 193 195 204 197 198 211
276 279 271 252 241 223 211 199 193 190 185 183 186 200 196 200 194 197 193 194 200 205
276 273 266 240 226 212 203 193 186 180 178 180 194 188 187 188 189 184 190 196 202 209
274 269 262 239 211 204 194 183 178 176 175 179 184 181 180 174 179 184 191 202 210 217
270 262 251 225 204 194 183 175 171 166 175 183 179 174 176 173 179 189 190 195 213 213
263 244 242 202 187 174 174 171 167 166 171 172 175 173 178 179 186 194 191 195 201 204